Regional Weather Roundup
Issued by NWS Burlington, VT

Home | Current Version | Previous Version | Text Only | Print | Product List | Glossary On
Versions: 1 2 3 4 5 6 7 8 9 10 11 12 13 14 15 16 17 18 19 20 21 22 23 24 25 26 27 28 29 30 31 32 33 34 35 36 37 38 39 40 41 42 43 44 45 46 47 48 49 50
000
ASUS41 KBTV 202110
RWRBTV
VERMONT REGIONAL WEATHER ROUNDUP
NATIONAL WEATHER SERVICE BURLINGTON VT
500 PM EDT SAT SEP 20 2014

NOTE: "FAIR" INDICATES FEW OR NO CLOUDS BELOW 12,000 FEET WITH NO
SIGNIFICANT WEATHER AND/OR OBSTRUCTIONS TO VISIBILITY.

* THESE REPORTS ARE NOT UNDER NWS QUALITY CONTROL AND/OR DO NOT
  REPORT WEATHER SUCH AS PRECIPITATION AND FOG.

VTZ001>019-202200-
_____VERMONT_____


CITY           SKY/WX    TMP DP  RH WIND       PRES   REMARKS
BURLINGTON     PTCLDY    70  56  61 S20G26    29.99F
MONTPELIER     CLOUDY    60  53  77 S15G24    30.09F
MORRISVILLE    CLOUDY    65  54  67 S8        30.03S
ST. JOHNSBURY*   N/A     60  52  74 MISG      30.04F
MIDDLEBURY*    CLOUDY    67  58  72 S7        30.02F
RUTLAND*       CLOUDY    64  57  77 SE5       30.06F
SPRINGFIELD    CLOUDY    66  56  70 S7        30.09F
HIGHGATE*      FAIR      67  56  68 S13       29.95S
NEWPORT*       CLOUDY    60  53  79 SE7       30.02S
BENNINGTON     CLOUDY    70  55  59 S10       30.09F

_____LAKE CHAMPLAIN_____


CITY           SKY/WX    TMP DP  RH WIND       PRES   REMARKS
COLCHESTER RF*   N/A     66  57  72 S30         N/A
DIAMOND ISL*     N/A     66  57  72 S18         N/A

$$

NYZ007-026>031-035-052-083-202200-
_____NORTHERN NEW YORK_____


CITY           SKY/WX    TMP DP  RH WIND       PRES   REMARKS
PLATTSBURGH    PTCLDY    68  56  65 S16G24    29.95S
SARANAC LAKE   CLOUDY    65  55  70 SW15G32   29.98S
MASSENA        MOCLDY    73  59  61 SW15G22   29.91R
OGDENSBURG*    MOCLDY    73  61  64 SW13G20   29.90S
POTSDAM*       CLOUDY    72  63  73 SW12G18   29.92S
WATERTOWN      MOCLDY    74  57  55 S15G23    29.92S
FT DRUM        MOCLDY    72  56  56 SW18      29.93S
ALBANY         MOCLDY    73  56  54 S15G24    30.06F
GLENS FALLS    CLOUDY    69  57  65 S7        30.04F

$$
NHZ002-005-011-202200-
_____NEW HAMPSHIRE_____


CITY           SKY/WX    TMP DP  RH WIND       PRES   REMARKS
LEBANON        CLOUDY    65  55  70 S6        30.07F
KEENE          CLOUDY    68  52  56 S12G18    30.12F
MT WASHINGTON  FOG       43  43 100 W54G60      N/A  VSB 0
PLYMOUTH       CLOUDY    58  53  84 CALM      30.12F
WHITEFIELD     CLOUDY    65  53  65 CALM      30.07F

$$

_____REGIONAL QUEBEC LOCATIONS_____


CITY           SKY/WX    TMP DP  RH WIND       PRES   REMARKS
MONTREAL       LGT RAIN  68  57  68 S9        29.90F
QUEBEC CITY    LGT RAIN  54  52  94 S7        29.88F
SHERBROOKE     CLOUDY    63  54  72 S9G18     29.99R

_____REGIONAL ONTARIO LOCATIONS_____


CITY           SKY/WX    TMP DP  RH WIND       PRES   REMARKS
OTTAWA         LGT RAIN  70  59  68 S15G30    29.85F

______KEY______
VSB  - VISIBILITY IN MILES
WCI  - WIND CHILL INDEX
HX   - HEAT INDEX
$$
NNNN


USA.gov is the U.S. government's official web portal to all federal, state and local government web resources and services.